Weather History for Port Isabel, TX

Change the Weather History Date:

Friday, February 15, 2013

  Actual Average Record
Temperature  
Mean Temperature 62 °F -  
Max Temperature 73 °F - - ()
Min Temperature 51 °F - - ()
Degree Days  
Heating Degree Days 3    
Growing Degree Days 12 (Base 50)    
Moisture  
Dew Point 50 °F    
Average Humidity 62    
Maximum Humidity 83    
Minimum Humidity 46    
Precipitation  
Precipitation 0.00 in - - ()
Sea Level Pressure  
Sea Level Pressure 30.12 in    
Wind  
Wind Speed 8 mph (ENE)    
Max Wind Speed 16 mph    
Max Gust Speed 23 mph    
Visibility 10 miles    
Events      
T = Trace of Precipitation, MM = Missing Value Source: NWS Daily Summary

Daily Weather History Graph

Daily Weather History Graph

Search for Another Location

Airport:

Trip Planner

Search our weather history database for the weather conditions in past years. The results will help you decide how hot, cold, wet, or windy it might be!

Date:

Astronomy

Feb. 15, 2013 Rise Set
Actual Time 7:04 AM CST 6:22 PM CST
Civil Twilight 6:41 AM CST 6:46 PM CST
Nautical Twilight 6:14 AM CST 7:13 PM CST
Astronomical Twilight 5:47 AM CST 7:40 PM CST
Moon 10:19 AM CST (2/15) 11:43 PM CST (2/15)
Length of Visible Light 12h 05m
Length of Day
11h 17m
Waxing Crescent, 30% of the Moon is Illuminated
Feb 15
Waxing Crescent
Feb 17
First Quarter
Feb 25
Full
Mar 4
Last Quarter
Mar 11
New

Hourly Weather History & Observations

Time (CST) Temp. Dew Point Humidity Pressure Visibility Wind Dir Wind Speed Gust Speed Precip Events Conditions
12:53 AM 62.1 °F 50.0 °F 65% 30.04 in 10.0 mi ESE 10.4 mph - N/A   Clear
1:53 AM 61.0 °F 51.1 °F 70% 30.05 in 10.0 mi ESE 8.1 mph - N/A   Clear
2:53 AM 59.0 °F 50.0 °F 72% 30.04 in 10.0 mi ESE 5.8 mph - N/A   Clear
3:53 AM 57.9 °F 50.0 °F 75% 30.06 in 10.0 mi SE 3.5 mph - N/A   Clear
4:53 AM 55.9 °F 48.9 °F 77% 30.06 in 10.0 mi East 3.5 mph - N/A   Clear
5:53 AM 54.0 °F 48.0 °F 80% 30.07 in 10.0 mi Calm Calm - N/A   Clear
6:53 AM 51.1 °F 46.0 °F 83% 30.10 in 10.0 mi Calm Calm - N/A   Clear
7:53 AM 57.0 °F 51.1 °F 81% 30.12 in 10.0 mi NNE 3.5 mph - N/A   Clear
8:53 AM 68.0 °F 55.0 °F 63% 30.12 in 10.0 mi East 10.4 mph - N/A   Clear
9:53 AM 71.1 °F 52.0 °F 51% 30.14 in 9.0 mi East 10.4 mph - N/A   Clear
10:53 AM 72.0 °F 52.0 °F 49% 30.14 in 9.0 mi East 11.5 mph - N/A   Clear
11:53 AM 73.0 °F 51.1 °F 46% 30.13 in 9.0 mi ENE 9.2 mph - N/A   Clear
1:53 PM 73.0 °F 52.0 °F 48% 30.10 in 9.0 mi NE 16.1 mph 21.9 mph N/A   Clear
2:53 PM 72.0 °F 53.1 °F 51% 30.09 in 9.0 mi NE 15.0 mph 23.0 mph N/A   Clear
3:53 PM 72.0 °F 52.0 °F 49% 30.09 in 9.0 mi ENE 16.1 mph 23.0 mph N/A   Clear
4:53 PM 69.1 °F 50.0 °F 51% 30.10 in 9.0 mi NE 15.0 mph - N/A   Clear
5:53 PM 68.0 °F 50.0 °F 52% 30.12 in 9.0 mi ENE 10.4 mph 19.6 mph N/A   Clear
6:53 PM 66.0 °F 48.9 °F 54% 30.14 in 10.0 mi ENE 12.7 mph - N/A   Clear
7:53 PM 64.9 °F 48.9 °F 56% 30.16 in 10.0 mi ENE 12.7 mph - N/A   Clear
8:53 PM 64.0 °F 50.0 °F 60% 30.18 in 10.0 mi ENE 9.2 mph - N/A   Clear
9:53 PM 64.0 °F 50.0 °F 60% 30.20 in 10.0 mi NE 6.9 mph - N/A   Clear
10:53 PM 61.0 °F 48.9 °F 64% 30.23 in 10.0 mi NNE 5.8 mph - N/A   Clear
11:53 PM 57.9 °F 48.9 °F 72% 30.24 in 10.0 mi North 3.5 mph - N/A   Mostly Cloudy